Crane Lake, MN

4:44 AM CDT on September 27, 2016 (GMT -0500)
Crane Lake

Weather History for KCDD - April, 2013

Change the Weather History Date:

Friday, April 19, 2013

  Actual Average Record
Temperature  
Mean Temperature 18 °F -  
Max Temperature 33 °F 49 °F 66 °F (2001)
Min Temperature 3 °F 26 °F 3 °F (2013)
Degree Days  
Heating Degree Days 47    
Moisture  
Dew Point 18 °F    
Average Humidity 79    
Maximum Humidity 100    
Minimum Humidity 44    
Precipitation  
Precipitation 0.06 in - - ()
Sea Level Pressure  
Sea Level Pressure 29.74 in    
Wind  
Wind Speed 10 mph (NNW)    
Max Wind Speed 16 mph    
Max Gust Speed 28 mph    
Visibility 5 miles    
Events Snow    
Averages and records for this station are not official NWS values.
T = Trace of Precipitation, MM = Missing Value Source: NWS Daily Summary

Daily Weather History Graph

Daily Weather History Graph

Search for Another Location

Airport or City:

Trip Planner

Search our weather history database for the weather conditions in past years. The results will help you decide how hot, cold, wet, or windy it might be!

Date:

Astronomy

Apr. 19, 2013 Rise Set
Actual Time 6:11 AM CDT 8:06 PM CDT
Civil Twilight 5:38 AM CDT 8:40 PM CDT
Nautical Twilight 4:57 AM CDT 9:21 PM CDT
Astronomical Twilight 4:12 AM CDT 10:07 PM CDT
Moon 1:23 PM CDT (4/19) 2:57 AM CDT (4/19)
Length of Visible Light 15h 01m
Length of Day
13h 55m
First Quarter, 62% of the Moon is Illuminated
Apr 19
First Quarter
Apr 25
Full
May 2
Last Quarter
May 9
New
May 17
First Quarter

Hourly Weather History & Observations

Time (CDT) Temp. Windchill Dew Point Humidity Pressure Visibility Wind Dir Wind Speed Gust Speed Precip Events Conditions
12:12 AM 26.6 °F 16.8 °F 26.6 °F 100% 29.64 in 0.5 mi North 10.4 mph 17.3 mph N/A Snow Light Snow
12:32 AM 26.6 °F 16.2 °F 26.6 °F 100% 29.64 in 0.8 mi North 11.5 mph 19.6 mph N/A Snow Light Snow
12:52 AM 26.6 °F 17.5 °F 26.6 °F 100% 29.63 in 0.8 mi North 9.2 mph 16.1 mph N/A Snow Light Snow
1:12 AM 26.6 °F 15.7 °F 26.6 °F 100% 29.63 in 0.5 mi North 12.7 mph 20.7 mph 0.01 in Snow Light Snow
1:32 AM 26.6 °F 17.5 °F 26.6 °F 100% 29.63 in 1.0 mi North 9.2 mph 18.4 mph 0.01 in Snow Light Snow
1:52 AM 26.6 °F 19.1 °F 26.6 °F 100% 29.63 in 0.8 mi North 6.9 mph - 0.01 in Snow Light Snow
2:12 AM 26.6 °F 19.1 °F 26.6 °F 100% 29.63 in 1.0 mi NNW 6.9 mph - N/A Snow Light Snow
2:32 AM 26.6 °F 18.2 °F 26.6 °F 100% 29.63 in 1.0 mi North 8.1 mph 17.3 mph 0.01 in Snow Light Snow
2:52 AM 26.6 °F 16.8 °F 24.8 °F 93% 29.63 in 0.5 mi North 10.4 mph 18.4 mph 0.01 in Snow Light Snow
3:12 AM 24.8 °F 16.1 °F 24.8 °F 100% 29.64 in 0.5 mi NNW 8.1 mph 18.4 mph N/A Snow Snow
3:32 AM 24.8 °F 13.4 °F 24.8 °F 100% 29.64 in 0.5 mi NNW 12.7 mph 19.6 mph 0.01 in Snow Snow
3:52 AM 24.8 °F 14.6 °F 24.8 °F 100% 29.64 in 0.5 mi North 10.4 mph 20.7 mph 0.01 in Snow Snow
4:12 AM 24.8 °F 17.9 °F 24.8 °F 100% 29.64 in 0.5 mi North 5.8 mph - 0.01 in Snow Light Snow
4:32 AM 24.8 °F 15.3 °F 24.8 °F 100% 29.64 in 0.5 mi NNW 9.2 mph - 0.01 in Snow Light Snow
4:52 AM 24.8 °F 14.6 °F 24.8 °F 100% 29.64 in 0.8 mi North 10.4 mph 19.6 mph 0.01 in Snow Light Snow
5:12 AM 24.8 °F 16.9 °F 23.0 °F 93% 29.64 in 0.8 mi NNW 6.9 mph 20.7 mph 0.01 in Snow Light Snow
5:32 AM 24.8 °F 14.6 °F 23.0 °F 93% 29.64 in 1.0 mi North 10.4 mph 20.7 mph 0.01 in Snow Light Snow
5:52 AM 23.0 °F 13.1 °F 23.0 °F 100% 29.65 in 1.2 mi North 9.2 mph 24.2 mph 0.01 in Snow Light Snow
6:12 AM 23.0 °F 11.1 °F 21.2 °F 93% 29.65 in 1.0 mi North 12.7 mph 21.9 mph N/A Snow Light Snow
6:32 AM 23.0 °F 10.6 °F 21.2 °F 93% 29.65 in 1.2 mi North 13.8 mph 20.7 mph N/A Snow Light Snow
6:52 AM 23.0 °F 13.9 °F 21.2 °F 93% 29.65 in 0.8 mi NNW 8.1 mph - N/A Snow Light Snow
7:12 AM 23.0 °F 11.1 °F 21.2 °F 93% 29.65 in 1.2 mi North 12.7 mph 21.9 mph N/A Snow Light Snow
7:32 AM 23.0 °F 11.1 °F 23.0 °F 100% 29.64 in 0.8 mi North 12.7 mph 24.2 mph N/A Snow Light Snow
7:52 AM 23.0 °F 12.4 °F 21.2 °F 93% 29.65 in 1.0 mi North 10.4 mph 27.6 mph N/A Snow Light Snow
8:12 AM 23.0 °F 13.1 °F 21.2 °F 93% 29.65 in 1.0 mi North 9.2 mph 19.6 mph N/A Snow Light Snow
8:32 AM 24.8 °F 14.0 °F 23.0 °F 93% 29.65 in 1.0 mi NNW 11.5 mph 18.4 mph N/A Snow Light Snow
8:52 AM 24.8 °F 14.6 °F 23.0 °F 93% 29.65 in 0.8 mi North 10.4 mph 18.4 mph N/A Snow Light Snow
9:12 AM 24.8 °F 15.3 °F 23.0 °F 93% 29.65 in 0.8 mi North 9.2 mph 21.9 mph 0.01 in Snow Light Snow
9:32 AM 24.8 °F 14.6 °F 23.0 °F 93% 29.65 in 1.0 mi NNW 10.4 mph 23.0 mph 0.01 in Snow Light Snow
9:52 AM 24.8 °F 13.4 °F 23.0 °F 93% 29.65 in 1.5 mi North 12.7 mph 19.6 mph 0.01 in Snow Light Snow
10:32 AM 24.8 °F 13.4 °F 24.8 °F 100% 29.66 in 5.0 mi NNW 12.7 mph 20.7 mph N/A   Overcast
10:52 AM 24.8 °F 12.4 °F 23.0 °F 93% 29.67 in 4.0 mi North 15.0 mph 24.2 mph N/A   Overcast
11:12 AM 24.8 °F 12.9 °F 23.0 °F 93% 29.68 in 1.5 mi NNW 13.8 mph 23.0 mph N/A Snow Light Snow
11:32 AM 26.6 °F 14.3 °F 23.0 °F 86% 29.68 in 4.0 mi North 16.1 mph 23.0 mph N/A   Overcast
11:52 AM 26.6 °F 14.7 °F 23.0 °F 86% 29.69 in 7.0 mi North 15.0 mph 19.6 mph N/A   Overcast
12:12 PM 28.4 °F 18.5 °F 24.8 °F 86% 29.70 in 10.0 mi North 11.5 mph 21.9 mph N/A   Overcast
12:32 PM 26.6 °F 16.2 °F 21.2 °F 80% 29.71 in 4.0 mi North 11.5 mph 25.3 mph N/A   Overcast
12:52 PM 26.6 °F 15.2 °F 23.0 °F 86% 29.72 in 5.0 mi North 13.8 mph 21.9 mph N/A Snow Light Snow
1:12 PM 28.4 °F 18.5 °F 23.0 °F 80% 29.72 in 7.0 mi NNW 11.5 mph 24.2 mph N/A   Overcast
1:32 PM 28.4 °F 18.0 °F 23.0 °F 80% 29.73 in 10.0 mi NNW 12.7 mph 20.7 mph N/A   Overcast
1:52 PM 30.2 °F 18.9 °F 21.2 °F 69% 29.73 in 7.0 mi NNW 16.1 mph 25.3 mph N/A   Overcast
2:12 PM 30.2 °F 19.8 °F 23.0 °F 75% 29.74 in 10.0 mi North 13.8 mph 21.9 mph N/A   Overcast
2:32 PM 30.2 °F 21.3 °F 24.8 °F 80% 29.74 in 10.0 mi North 10.4 mph 18.4 mph N/A   Mostly Cloudy
2:52 PM 32.0 °F 23.0 °F 23.0 °F 69% 29.75 in 10.0 mi NNW 11.5 mph 20.7 mph N/A   Mostly Cloudy
3:12 PM 32.0 °F 23.0 °F 19.4 °F 60% 29.76 in 10.0 mi North 11.5 mph 19.6 mph N/A   Mostly Cloudy
3:32 PM 32.0 °F 23.0 °F 21.2 °F 64% 29.77 in 10.0 mi North 11.5 mph 17.3 mph N/A   Mostly Cloudy
3:52 PM 32.0 °F 23.0 °F 17.6 °F 55% 29.77 in 10.0 mi North 11.5 mph 21.9 mph N/A   Mostly Cloudy
4:12 PM 32.0 °F 24.2 °F 15.8 °F 51% 29.78 in 10.0 mi North 9.2 mph 17.3 mph N/A   Mostly Cloudy
4:32 PM 33.8 °F 24.8 °F 15.8 °F 48% 29.79 in 10.0 mi North 12.7 mph 19.6 mph N/A   Overcast
4:52 PM 32.0 °F 25.6 °F 15.8 °F 51% 29.80 in 10.0 mi North 6.9 mph - N/A   Scattered Clouds
5:12 PM 32.0 °F 23.0 °F 14.0 °F 48% 29.81 in 10.0 mi NNW 11.5 mph 20.7 mph N/A   Clear
5:32 PM 32.0 °F 21.2 °F 12.2 °F 44% 29.82 in 10.0 mi NNW 16.1 mph 19.6 mph N/A   Clear
5:52 PM 32.0 °F 24.2 °F 12.2 °F 44% 29.83 in 10.0 mi NNW 9.2 mph 20.7 mph N/A   Clear
6:12 PM 32.0 °F 24.8 °F 12.2 °F 44% 29.83 in 10.0 mi North 8.1 mph - N/A   Clear
6:32 PM 30.2 °F 21.3 °F 10.4 °F 44% 29.84 in 10.0 mi NW 10.4 mph 18.4 mph N/A   Clear
6:52 PM 30.2 °F 21.9 °F 10.4 °F 44% 29.85 in 10.0 mi NNW 9.2 mph 16.1 mph N/A   Clear
7:12 PM 28.4 °F 20.4 °F 10.4 °F 47% 29.86 in 10.0 mi NNW 8.1 mph - N/A   Clear
7:32 PM 26.6 °F 19.1 °F 10.4 °F 51% 29.87 in 10.0 mi NNW 6.9 mph - N/A   Clear
7:52 PM 24.8 °F 19.1 °F 8.6 °F 50% 29.87 in 10.0 mi NNW 4.6 mph - N/A   Clear
8:12 PM 23.0 °F 18.4 °F 8.6 °F 54% 29.88 in 10.0 mi NNW 3.5 mph - N/A   Clear
8:32 PM 19.4 °F - 5.0 °F 54% 29.89 in 10.0 mi Calm Calm - N/A   Clear
8:52 PM 14.0 °F - 1.4 °F 57% 29.90 in 10.0 mi Calm Calm - N/A   Clear
9:12 PM 12.2 °F - -0.4 °F 57% 29.91 in 10.0 mi Calm Calm - N/A   Clear
9:32 PM 10.4 °F - -0.4 °F 62% 29.92 in 10.0 mi Calm Calm - N/A   Clear
9:52 PM 8.6 °F - 1.4 °F 73% 29.93 in 10.0 mi Calm Calm - N/A   Clear
10:12 PM 8.6 °F - -0.4 °F 67% 29.93 in 10.0 mi Calm Calm - N/A   Clear
10:32 PM 6.8 °F - -0.4 °F 72% 29.94 in 10.0 mi Calm Calm - N/A   Clear
10:52 PM 5.0 °F - -2.2 °F 72% 29.94 in 10.0 mi Calm Calm - N/A   Clear
11:12 PM 3.2 °F - -2.2 °F 78% 29.95 in 10.0 mi Calm Calm - N/A   Clear
11:32 PM 3.2 °F - -2.2 °F 78% 29.96 in 10.0 mi Calm Calm - N/A   Clear